Location: Unspecified
(0.0000°N, 0.0000°E)
Time: 06:54:03
(UTC+02:00)

DELTA 2 R/B (1) - Visible Passes

Search period start: 01 October 2016 00:00
Search period end: 11 October 2016 00:00
Orbit: 790 x 803 km, 39.6° (Epoch: 30 September)

Date Brightness Start Highest point End Pass type
(mag) Time Alt. Az. Time Alt. Az. Time Alt. Az.
04 Oct 5.9 22:10:21 10° SSW 22:11:12 14° SSW 22:11:12 14° SSW visible
05 Oct 5.1 21:39:42 10° SSW 21:42:31 24° S 21:42:31 24° S visible
06 Oct 4.6 21:09:04 10° SSW 21:13:49 28° SE 21:13:54 28° SE visible
07 Oct 4.8 20:38:28 10° SSW 20:43:00 25° SE 20:45:21 19° ESE visible
07 Oct 5.7 22:24:02 10° WSW 22:26:10 23° WSW 22:26:10 23° WSW visible
08 Oct 5.0 20:07:54 10° S 20:12:11 22° SE 20:16:27 10° E visible
08 Oct 4.4 21:53:08 10° WSW 21:57:41 47° WNW 21:57:41 47° WNW visible
09 Oct 3.9 21:22:16 10° WSW 21:27:45 60° NW 21:29:12 45° NNE visible
10 Oct 3.8 20:51:25 10° SW 20:56:57 68° NW 21:00:45 20° NE visible
